Oscoda, MI

3:14 AM EST on December 03, 2016 (GMT -0500)
Oscoda-Wurtsmith

Weather History for KOSC - August, 2014

Change the Weather History Date:

Tuesday, August 26, 2014

  Actual Average Record
Temperature  
Mean Temperature 74 °F -  
Max Temperature 85 °F 73 °F 90 °F (2013)
Min Temperature 61 °F 54 °F 44 °F (2008)
Cooling Degree Days 8    
Growing Degree Days 24 (Base 50)    
Moisture  
Dew Point 67 °F    
Average Humidity 84    
Maximum Humidity 100    
Minimum Humidity 58    
Precipitation  
Precipitation 0.00 in - - ()
Sea Level Pressure  
Sea Level Pressure 30.01 in    
Wind  
Wind Speed 7 mph (WSW)    
Max Wind Speed 15 mph    
Max Gust Speed 21 mph    
Visibility 8 miles    
Events Fog    
Averages and records for this station are not official NWS values.
T = Trace of Precipitation, MM = Missing Value Source: NWS Daily Summary

Daily Weather History Graph

Daily Weather History Graph

Search for Another Location

Airport or City:

Trip Planner

Search our weather history database for the weather conditions in past years. The results will help you decide how hot, cold, wet, or windy it might be!

Date:

Astronomy

Aug. 26, 2014 Rise Set
Actual Time 6:49 AM EDT 8:20 PM EDT
Civil Twilight 6:18 AM EDT 8:50 PM EDT
Nautical Twilight 5:41 AM EDT 9:27 PM EDT
Astronomical Twilight 5:02 AM EDT 10:07 PM EDT
Moon 7:52 AM EDT (8/26) 8:36 PM EDT (8/26)
Length of Visible Light 14h 32m
Length of Day
13h 31m
New Moon, 1% of the Moon is Illuminated
Aug 26
New Moon
Sep 2
First Quarter
Sep 8
Full
Sep 15
Last Quarter
Sep 24
New

Hourly Weather History & Observations

Time (EDT) Temp. Heat Index Dew Point Humidity Pressure Visibility Wind Dir Wind Speed Gust Speed Precip Events Conditions
12:13 AM 72.1 °F - 70.9 °F 96% 29.98 in 7.0 mi South 9.2 mph - N/A   Clear
12:33 AM 72.5 °F - 71.1 °F 95% 29.98 in 7.0 mi SSW 8.1 mph - N/A   Clear
12:54 AM 72.5 °F - 71.1 °F 95% 29.98 in 7.0 mi South 6.9 mph - N/A   Clear
1:14 AM 72.7 °F - 71.1 °F 95% 29.98 in 7.0 mi SSW 8.1 mph - N/A   Clear
1:34 AM 72.9 °F - 71.2 °F 95% 29.98 in 7.0 mi SSW 8.1 mph - N/A   Clear
1:54 AM 72.5 °F - 71.1 °F 95% 29.98 in 7.0 mi SSW 8.1 mph - N/A   Clear
2:14 AM 72.1 °F - 70.9 °F 96% 29.98 in 5.0 mi SSW 5.8 mph - N/A   Clear
2:34 AM 71.2 °F - 70.3 °F 97% 29.98 in 5.0 mi SW 3.5 mph - N/A   Clear
2:54 AM 70.9 °F - 70.3 °F 98% 29.98 in 4.0 mi SSW 4.6 mph - N/A   Clear
3:14 AM 70.9 °F - 70.3 °F 98% 29.98 in - SW 5.8 mph - N/A   Unknown
3:34 AM 70.9 °F - 70.3 °F 98% 29.98 in 5.0 mi SW 4.6 mph - N/A   Clear
3:53 AM 70.9 °F - 70.3 °F 98% 29.98 in 5.0 mi SSW 6.9 mph - N/A   Clear
4:14 AM 70.7 °F - 70.0 °F 98% 29.98 in - SW 4.6 mph - N/A   Unknown
4:34 AM 70.5 °F - 70.2 °F 99% 29.98 in 5.0 mi SSW 3.5 mph - N/A   Clear
4:53 AM 70.2 °F - 69.8 °F 99% 29.98 in - SW 3.5 mph - N/A   Unknown
5:14 AM 70.0 °F - 69.8 °F 99% 29.98 in 4.0 mi Calm Calm - N/A   Clear
5:34 AM 69.8 °F - 69.8 °F 100% 29.98 in 4.0 mi SSW 4.6 mph - N/A   Clear
5:53 AM 69.3 °F - 69.1 °F 99% 29.98 in 2.5 mi SSW 3.5 mph - N/A   Mostly Cloudy
6:14 AM 69.3 °F - 69.1 °F 99% 29.99 in 2.5 mi Calm Calm - N/A   Overcast
6:34 AM 69.4 °F - 69.3 °F 99% 30.00 in 1.8 mi South 3.5 mph - N/A   Overcast
6:53 AM 69.6 °F - 69.4 °F 99% 30.00 in 1.5 mi SSW 3.5 mph - N/A   Overcast
7:14 AM 69.3 °F - 69.1 °F 99% 30.01 in 0.5 mi SW 4.6 mph - N/A Fog Fog
7:34 AM 68.9 °F - 68.9 °F 100% 30.01 in 0.5 mi SSW 4.6 mph - N/A Fog Fog
7:53 AM 69.1 °F - 69.1 °F 100% 30.01 in 0.2 mi SW 6.9 mph - N/A Fog Fog
8:14 AM 69.1 °F - 69.1 °F 100% 30.02 in 0.5 mi WSW 8.1 mph - N/A Fog Fog
8:34 AM 69.4 °F - 69.4 °F 100% 30.01 in 1.5 mi WSW 8.1 mph - N/A   Overcast
8:53 AM 70.0 °F - 70.0 °F 100% 30.03 in 3.0 mi West 5.8 mph - N/A   Overcast
9:14 AM 71.8 °F - 70.3 °F 95% 30.03 in 7.0 mi West 5.8 mph - N/A   Scattered Clouds
9:33 AM 73.6 °F - 70.0 °F 88% 30.02 in 10.0 mi West 5.8 mph - N/A   Mostly Cloudy
9:54 AM 73.9 °F - 69.8 °F 87% 30.02 in 10.0 mi West 8.1 mph - N/A   Overcast
10:14 AM 74.7 °F - 69.8 °F 85% 30.01 in 10.0 mi Calm Calm - N/A   Mostly Cloudy
10:33 AM 75.0 °F - 70.2 °F 85% 30.02 in 10.0 mi NNW 5.8 mph - N/A   Mostly Cloudy
10:54 AM 76.8 °F - 70.9 °F 82% 30.03 in 10.0 mi Calm Calm - N/A   Scattered Clouds
11:14 AM 77.2 °F - 70.5 °F 80% 30.02 in 10.0 mi SSW 5.8 mph - N/A   Scattered Clouds
11:33 AM 78.3 °F - 70.2 °F 76% 30.01 in 10.0 mi Calm Calm - N/A   Scattered Clouds
11:54 AM 78.6 °F - 70.7 °F 77% 30.02 in 10.0 mi SW 4.6 mph - N/A   Scattered Clouds
12:14 PM 79.9 °F - 71.4 °F 75% 30.01 in 10.0 mi SSW 5.8 mph - N/A   Scattered Clouds
12:33 PM 81.5 °F 85.5 °F 70.9 °F 70% 30.01 in 10.0 mi SW 5.8 mph - N/A   Mostly Cloudy
12:54 PM 83.7 °F 88.9 °F 71.8 °F 67% 30.02 in 10.0 mi WSW 5.8 mph - N/A   Mostly Cloudy
1:14 PM 82.2 °F 86.9 °F 71.4 °F 70% 30.01 in 10.0 mi WNW 8.1 mph - N/A   Overcast
1:33 PM 82.6 °F 87.1 °F 70.9 °F 68% 30.01 in 10.0 mi WSW 10.4 mph - N/A   Mostly Cloudy
1:54 PM 83.7 °F 88.3 °F 70.9 °F 65% 30.01 in 10.0 mi SW 8.1 mph - N/A   Mostly Cloudy
2:14 PM 84.0 °F 88.7 °F 70.9 °F 64% 30.01 in 10.0 mi WSW 10.4 mph - N/A   Mostly Cloudy
2:33 PM 83.3 °F 87.9 °F 70.7 °F 66% 30.01 in 10.0 mi WSW 11.5 mph - N/A   Overcast
2:54 PM 84.6 °F 89.4 °F 70.9 °F 63% 30.01 in 10.0 mi West 13.8 mph 17.3 mph N/A   Mostly Cloudy
3:13 PM 85.1 °F 89.1 °F 69.1 °F 59% 30.00 in 10.0 mi WSW 12.7 mph - N/A   Scattered Clouds
3:34 PM 84.9 °F 88.5 °F 68.5 °F 58% 29.99 in 10.0 mi WSW 11.5 mph - N/A   Scattered Clouds
3:54 PM 78.8 °F - 66.9 °F 67% 30.00 in 10.0 mi NE 15.0 mph 19.6 mph N/A   Scattered Clouds
4:13 PM 72.1 °F - 63.5 °F 74% 30.01 in 10.0 mi NE 15.0 mph - N/A   Overcast
4:34 PM 70.5 °F - 61.0 °F 72% 30.00 in 10.0 mi NE 13.8 mph 19.6 mph N/A   Overcast
4:54 PM 69.8 °F - 59.9 °F 71% 30.01 in 10.0 mi NE 12.7 mph 20.7 mph N/A   Scattered Clouds
5:13 PM 70.0 °F - 60.3 °F 71% 30.02 in 10.0 mi NE 11.5 mph - N/A   Scattered Clouds
5:34 PM 69.8 °F - 59.9 °F 71% 30.02 in 10.0 mi NE 11.5 mph - N/A   Clear
5:54 PM 70.2 °F - 60.3 °F 71% 30.01 in 10.0 mi NE 9.2 mph - N/A   Clear
6:13 PM 69.8 °F - 60.1 °F 71% 30.02 in 10.0 mi NE 10.4 mph - N/A   Scattered Clouds
6:34 PM 68.9 °F - 60.3 °F 74% 30.02 in 10.0 mi NE 9.2 mph - N/A   Scattered Clouds
6:54 PM 69.4 °F - 60.3 °F 73% 30.01 in 10.0 mi NE 5.8 mph - N/A   Scattered Clouds
7:13 PM 69.8 °F - 60.6 °F 73% 30.02 in 10.0 mi NE 3.5 mph - N/A   Scattered Clouds
7:34 PM 69.8 °F - 60.8 °F 73% 30.03 in 10.0 mi NE 3.5 mph - N/A   Scattered Clouds
7:54 PM 69.8 °F - 61.2 °F 74% 30.03 in 10.0 mi ENE 4.6 mph - N/A   Mostly Cloudy
8:13 PM 68.7 °F - 60.1 °F 74% 30.03 in 10.0 mi NE 4.6 mph - N/A   Overcast
8:34 PM 67.6 °F - 60.3 °F 77% 30.04 in 10.0 mi NE 5.8 mph - N/A   Overcast
8:54 PM 67.6 °F - 60.4 °F 78% 30.04 in 10.0 mi NE 5.8 mph - N/A   Overcast
9:13 PM 67.1 °F - 60.8 °F 80% 30.05 in 10.0 mi NE 9.2 mph - N/A   Overcast
9:34 PM 66.2 °F - 60.3 °F 81% 30.05 in 10.0 mi NE 6.9 mph - N/A   Overcast
9:54 PM 64.9 °F - 59.9 °F 84% 30.05 in 10.0 mi NE 5.8 mph - N/A   Mostly Cloudy
10:14 PM 64.0 °F - 59.7 °F 86% 30.06 in 10.0 mi NE 8.1 mph - N/A   Scattered Clouds
10:34 PM 64.4 °F - 59.5 °F 84% 30.06 in 7.0 mi North 8.1 mph - N/A   Mostly Cloudy
10:54 PM 63.7 °F - 58.5 °F 83% 30.06 in 10.0 mi North 8.1 mph - N/A   Overcast
11:14 PM 62.6 °F - 57.2 °F 82% 30.07 in 10.0 mi North 9.2 mph - N/A   Mostly Cloudy
11:34 PM 62.1 °F - 55.9 °F 80% 30.07 in 10.0 mi North 10.4 mph - N/A   Mostly Cloudy
11:54 PM 61.7 °F - 55.6 °F 80% 30.09 in 10.0 mi North 4.6 mph - N/A   Overcast